TimeMST,TemperatureF,Dew PointF,Humidity,Sea Level PressureIn,VisibilityMPH,Wind Direction,Wind SpeedMPH,Gust SpeedMPH,PrecipitationIn,Events,Conditions,WindDirDegrees,DateUTC
12:54 AM,27.0,10.9,51,30.25,10.0,Calm,Calm,-,N/A,,Clear,0,2013-01-24 07:54:00
1:54 AM,33.1,12.9,43,30.24,10.0,South,3.5,-,N/A,,Clear,180,2013-01-24 08:54:00
2:54 AM,28.9,12.0,49,30.26,10.0,ESE,3.5,-,N/A,,Clear,110,2013-01-24 09:54:00
3:54 AM,30.9,12.9,47,30.24,10.0,SSE,3.5,-,N/A,,Clear,150,2013-01-24 10:54:00
4:54 AM,30.9,14.0,50,30.24,10.0,Calm,Calm,-,N/A,,Clear,0,2013-01-24 11:54:00
5:54 AM,28.9,15.1,56,30.28,10.0,Calm,Calm,-,N/A,,Clear,0,2013-01-24 12:54:00
6:54 AM,30.9,14.0,50,30.29,10.0,Calm,Calm,-,N/A,,Clear,0,2013-01-24 13:54:00
7:54 AM,28.9,16.0,58,30.31,8.0,Calm,Calm,-,N/A,,Clear,0,2013-01-24 14:54:00
8:54 AM,35.1,15.1,44,30.30,10.0,Calm,Calm,-,N/A,,Clear,0,2013-01-24 15:54:00
9:54 AM,39.9,16.0,38,30.30,10.0,Calm,Calm,-,N/A,,Partly Cloudy,0,2013-01-24 16:54:00
10:54 AM,46.0,17.1,31,30.32,10.0,Calm,Calm,-,N/A,,Mostly Cloudy,0,2013-01-24 17:54:00
11:54 AM,50.0,19.0,29,30.26,10.0,Calm,Calm,-,N/A,,Mostly Cloudy,0,2013-01-24 18:54:00
12:54 PM,50.0,25.0,38,30.27,10.0,NW,4.6,-,0.00,Rain,Light Rain,320,2013-01-24 19:54:00
1:54 PM,52.0,30.0,43,30.20,10.0,North,5.8,-,0.00,Rain,Light Rain,350,2013-01-24 20:54:00
2:54 PM,54.0,30.9,41,30.18,10.0,Calm,Calm,-,0.00,,Mostly Cloudy,0,2013-01-24 21:54:00
3:54 PM,53.1,33.1,47,30.19,10.0,SE,5.8,-,N/A,,Overcast,130,2013-01-24 22:54:00
4:54 PM,53.1,33.1,47,30.20,10.0,North,4.6,-,N/A,,Overcast,350,2013-01-24 23:54:00
5:54 PM,48.9,36.0,61,30.25,10.0,NW,6.9,-,0.00,Rain,Light Rain,310,2013-01-25 00:54:00
6:54 PM,46.0,39.9,79,30.27,10.0,NW,4.6,-,0.00,,Overcast,320,2013-01-25 01:54:00
7:54 PM,45.0,39.9,82,30.28,10.0,ENE,4.6,-,N/A,,Overcast,60,2013-01-25 02:54:00
8:54 PM,44.1,39.9,85,30.26,10.0,Calm,Calm,-,0.00,Rain,Light Rain,0,2013-01-25 03:54:00
9:54 PM,42.1,39.0,89,30.25,10.0,Calm,Calm,-,0.00,,Partly Cloudy,0,2013-01-25 04:54:00
10:54 PM,41.0,39.0,93,30.24,10.0,Calm,Calm,-,N/A,,Mostly Cloudy,0,2013-01-25 05:54:00
11:54 PM,42.1,39.0,89,30.23,10.0,Calm,Calm,-,N/A,,Overcast,0,2013-01-25 06:54:00